Location: Newark
(40.3500°N, 15.2333°E)
Time: 15:39:22
(UTC+00:00)

Altair - Pass Details

Date: 20 January 2020
Orbit: 1502 x 1682 km, 47.2° (Epoch: 24 February)

Event Time Altitude Azimuth Distance (km) Brightness Sun altitude
Rises 09:52:26 0° 251° (WSW) 4,906 10.1 26.8°
Reaches altitude 10° 09:55:36 10° 253° (WSW) 3,930 9.7 27.0°
Maximum altitude 10:05:46 75° 338° (NNW) 1,734 8.1 27.6°
Drops below altitude 10° 10:15:55 10° 64° (ENE) 3,917 9.6 28.2°
Sets 10:19:04 0° 67° (ENE) 4,889 10.0 28.3°
